contact:dominique.lefevre@mio.osupytheas.fr, maurice.libes@osupytheas.fr, didier.mallarino@osupytheas.fr
Project:EMSO http://www.emso-fr.org/EMSO-France
Depth: 2436.0 m
Title:EMSO Ligure Ouest : Data MII capteur MICROCAT
DateTime_Computer,Latitude,Longitude,Temperature,Conductivity,Pressure,DateTime_Instrument
DateTime_Computer,Latitude,Longitude,degC,S m-1,dbar,DateTime_Instrument
2023-03-11T00:02:17Z,42.805,6.029,13.3049,4.60197,2470.707,2023-3-11T02:04:54Z
2023-03-11T00:05:20Z,42.805,6.029,13.3075,4.60125,2470.67,2023-3-11T02:07:57Z
2023-03-11T00:08:23Z,42.805,6.029,13.3068,4.60137,2470.67,2023-3-11T02:11:00Z
2023-03-11T00:11:26Z,42.805,6.029,13.3078,4.60139,2470.67,2023-3-11T02:14:03Z
2023-03-11T00:14:29Z,42.805,6.029,13.3089,4.60133,2470.707,2023-3-11T02:17:06Z
2023-03-11T00:17:32Z,42.805,6.029,13.3062,4.60179,2470.661,2023-3-11T02:20:10Z
2023-03-11T00:20:36Z,42.805,6.029,13.3078,4.60143,2470.633,2023-3-11T02:23:13Z
2023-03-11T00:23:39Z,42.805,6.029,13.3085,4.60154,2470.661,2023-3-11T02:26:16Z
2023-03-11T00:26:42Z,42.805,6.029,13.3096,4.60167,2470.661,2023-3-11T02:29:19Z
2023-03-11T00:29:45Z,42.805,6.029,13.3098,4.60132,2470.624,2023-3-11T02:32:22Z
2023-03-11T00:32:48Z,42.805,6.029,13.3100,4.60115,2470.624,2023-3-11T02:35:25Z
2023-03-11T00:35:51Z,42.805,6.029,13.3069,4.60145,2470.624,2023-3-11T02:38:28Z
2023-03-11T00:38:54Z,42.805,6.029,13.3069,4.60126,2470.661,2023-3-11T02:41:31Z
2023-03-11T00:41:57Z,42.805,6.029,13.3062,4.60110,2470.684,2023-3-11T02:44:34Z
2023-03-11T00:45:00Z,42.805,6.029,13.3061,4.60150,2470.624,2023-3-11T02:47:37Z
2023-03-11T00:48:03Z,42.805,6.029,13.3064,4.60101,2470.661,2023-3-11T02:50:40Z
2023-03-11T00:51:06Z,42.805,6.029,13.3077,4.60085,2470.661,2023-3-11T02:53:43Z
2023-03-11T00:54:09Z,42.805,6.029,13.3069,4.60104,2470.624,2023-3-11T02:56:46Z
2023-03-11T00:57:12Z,42.805,6.029,13.3072,4.60127,2470.637,2023-3-11T02:59:50Z
2023-03-11T01:00:16Z,42.805,6.029,13.3087,4.60136,2470.637,2023-3-11T03:02:53Z
2023-03-11T01:03:19Z,42.805,6.029,13.3098,4.60171,2470.6,2023-3-11T03:05:56Z
2023-03-11T01:06:22Z,42.805,6.029,13.3099,4.60165,2470.646,2023-3-11T03:08:59Z
2023-03-11T01:09:25Z,42.805,6.029,13.3061,4.60165,2470.6,2023-3-11T03:12:02Z
2023-03-11T01:12:28Z,42.805,6.029,13.3070,4.60104,2470.624,2023-3-11T03:15:05Z
2023-03-11T01:15:31Z,42.805,6.029,13.3043,4.60150,2470.6,2023-3-11T03:18:08Z
2023-03-11T01:18:34Z,42.805,6.029,13.3043,4.60184,2470.6,2023-3-11T03:21:11Z
2023-03-11T01:21:37Z,42.805,6.029,13.3075,4.60167,2470.628,2023-3-11T03:24:14Z
2023-03-11T01:24:40Z,42.805,6.029,13.3096,4.60185,2470.6,2023-3-11T03:27:17Z
2023-03-11T01:27:43Z,42.805,6.029,13.3099,4.60131,2470.614,2023-3-11T03:30:20Z
2023-03-11T01:30:46Z,42.805,6.029,13.3075,4.60132,2470.614,2023-3-11T03:33:23Z
2023-03-11T01:33:49Z,42.805,6.029,13.3070,4.60156,2470.614,2023-3-11T03:36:27Z
2023-03-11T01:36:52Z,42.805,6.029,13.3056,4.60180,2470.637,2023-3-11T03:39:30Z
2023-03-11T01:39:56Z,42.805,6.029,13.3075,4.60166,2470.6,2023-3-11T03:42:33Z
2023-03-11T01:42:59Z,42.805,6.029,13.3088,4.60202,2470.6,2023-3-11T03:45:36Z
2023-03-11T01:46:02Z,42.805,6.029,13.3090,4.60155,2470.614,2023-3-11T03:48:39Z
2023-03-11T01:49:05Z,42.805,6.029,13.3043,4.60163,2470.6,2023-3-11T03:51:42Z
2023-03-11T01:52:08Z,42.805,6.029,13.3056,4.60157,2470.614,2023-3-11T03:54:45Z
2023-03-11T01:55:11Z,42.805,6.029,13.3088,4.60137,2470.6,2023-3-11T03:57:48Z
2023-03-11T01:58:14Z,42.805,6.029,13.3054,4.60155,2470.614,2023-3-11T04:00:51Z
2023-03-11T02:01:17Z,42.805,6.029,13.3082,4.60235,2470.577,2023-3-11T04:03:54Z
2023-03-11T02:04:20Z,42.805,6.029,13.3094,4.60161,2470.544,2023-3-11T04:06:57Z
2023-03-11T02:07:23Z,42.805,6.029,13.3095,4.60142,2470.614,2023-3-11T04:10:00Z
2023-03-11T02:10:26Z,42.805,6.029,13.3082,4.60127,2470.591,2023-3-11T04:13:03Z
2023-03-11T02:13:29Z,42.805,6.029,13.3051,4.60144,2470.577,2023-3-11T04:16:07Z
2023-03-11T02:16:33Z,42.805,6.029,13.3077,4.60164,2470.577,2023-3-11T04:19:10Z
2023-03-11T02:19:36Z,42.805,6.029,13.3084,4.60217,2470.577,2023-3-11T04:22:13Z
2023-03-11T02:22:39Z,42.805,6.029,13.3058,4.60151,2470.577,2023-3-11T04:25:16Z
2023-03-11T02:25:42Z,42.805,6.029,13.3060,4.60164,2470.553,2023-3-11T04:28:19Z
2023-03-11T02:28:45Z,42.805,6.029,13.3057,4.60144,2470.567,2023-3-11T04:31:22Z
2023-03-11T02:31:48Z,42.805,6.029,13.3042,4.60147,2470.553,2023-3-11T04:34:25Z
2023-03-11T02:34:51Z,42.805,6.029,13.3038,4.60106,2470.53,2023-3-11T04:37:28Z
2023-03-11T02:37:54Z,42.805,6.029,13.3070,4.60144,2470.567,2023-3-11T04:40:31Z
2023-03-11T02:40:57Z,42.805,6.029,13.3056,4.60158,2470.591,2023-3-11T04:43:34Z
2023-03-11T02:44:00Z,42.805,6.029,13.3041,4.60146,2470.567,2023-3-11T04:46:37Z
2023-03-11T02:47:03Z,42.805,6.029,13.3034,4.60146,2470.53,2023-3-11T04:49:41Z
2023-03-11T02:50:06Z,42.805,6.029,13.3048,4.60159,2470.591,2023-3-11T04:52:44Z
2023-03-11T02:53:09Z,42.805,6.029,13.3042,4.60165,2470.539,2023-3-11T04:55:47Z
2023-03-11T02:56:13Z,42.805,6.029,13.3036,4.60152,2470.553,2023-3-11T04:58:50Z
2023-03-11T02:59:16Z,42.805,6.029,13.3045,4.60148,2470.567,2023-3-11T05:01:53Z
2023-03-11T03:02:19Z,42.805,6.029,13.3072,4.60150,2470.553,2023-3-11T05:04:56Z
2023-03-11T03:05:22Z,42.805,6.029,13.3084,4.60144,2470.544,2023-3-11T05:07:59Z
2023-03-11T03:08:25Z,42.805,6.029,13.3078,4.60156,2470.53,2023-3-11T05:11:02Z
2023-03-11T03:11:28Z,42.805,6.029,13.3046,4.60190,2470.591,2023-3-11T05:14:05Z
2023-03-11T03:14:31Z,42.805,6.029,13.3093,4.60190,2470.614,2023-3-11T05:17:08Z
2023-03-11T03:17:34Z,42.805,6.029,13.3037,4.60225,2470.53,2023-3-11T05:20:11Z
2023-03-11T03:20:37Z,42.805,6.029,13.3093,4.60138,2470.553,2023-3-11T05:23:14Z
2023-03-11T03:23:40Z,42.805,6.029,13.3073,4.60189,2470.544,2023-3-11T05:26:17Z
2023-03-11T03:26:43Z,42.805,6.029,13.3086,4.60150,2470.567,2023-3-11T05:29:21Z
2023-03-11T03:29:46Z,42.805,6.029,13.3101,4.60187,2470.567,2023-3-11T05:32:24Z
2023-03-11T03:32:50Z,42.805,6.029,13.3100,4.60163,2470.53,2023-3-11T05:35:27Z
2023-03-11T03:35:53Z,42.805,6.029,13.3043,4.60173,2470.539,2023-3-11T05:38:30Z
2023-03-11T03:38:56Z,42.805,6.029,13.3063,4.60192,2470.577,2023-3-11T05:41:33Z
2023-03-11T03:41:59Z,42.805,6.029,13.3076,4.60180,2470.553,2023-3-11T05:44:36Z
2023-03-11T03:45:02Z,42.805,6.029,13.3091,4.60146,2470.553,2023-3-11T05:47:39Z
2023-03-11T03:48:05Z,42.805,6.029,13.3087,4.60160,2470.53,2023-3-11T05:50:42Z
2023-03-11T03:51:08Z,42.805,6.029,13.3088,4.60167,2470.567,2023-3-11T05:53:45Z
2023-03-11T03:54:11Z,42.805,6.029,13.3084,4.60160,2470.553,2023-3-11T05:56:48Z
2023-03-11T03:57:14Z,42.805,6.029,13.3042,4.60198,2470.544,2023-3-11T05:59:51Z
2023-03-11T04:00:17Z,42.805,6.029,13.3084,4.60175,2470.567,2023-3-11T06:02:54Z
2023-03-11T04:03:20Z,42.805,6.029,13.3082,4.60162,2470.553,2023-3-11T06:05:58Z
2023-03-11T04:06:23Z,42.805,6.029,13.3086,4.60166,2470.553,2023-3-11T06:09:01Z
2023-03-11T04:09:26Z,42.805,6.029,13.3085,4.60167,2470.53,2023-3-11T06:12:04Z
2023-03-11T04:12:30Z,42.805,6.029,13.3086,4.60150,2470.553,2023-3-11T06:15:07Z
2023-03-11T04:15:33Z,42.805,6.029,13.3096,4.60144,2470.53,2023-3-11T06:18:10Z
2023-03-11T04:18:36Z,42.805,6.029,13.3067,4.60155,2470.53,2023-3-11T06:21:13Z
2023-03-11T04:21:39Z,42.805,6.029,13.3089,4.60174,2470.553,2023-3-11T06:24:16Z
2023-03-11T04:24:42Z,42.805,6.029,13.3061,4.60135,2470.544,2023-3-11T06:27:19Z
2023-03-11T04:27:45Z,42.805,6.029,13.3044,4.60152,2470.577,2023-3-11T06:30:22Z
2023-03-11T04:30:48Z,42.805,6.029,13.3058,4.60174,2470.553,2023-3-11T06:33:25Z
2023-03-11T04:33:51Z,42.805,6.029,13.3070,4.60155,2470.544,2023-3-11T06:36:28Z
2023-03-11T04:36:54Z,42.805,6.029,13.3067,4.60152,2470.553,2023-3-11T06:39:31Z
2023-03-11T04:39:57Z,42.805,6.029,13.3084,4.60190,2470.553,2023-3-11T06:42:34Z
2023-03-11T04:43:00Z,42.805,6.029,13.3063,4.60193,2470.577,2023-3-11T06:45:38Z
2023-03-11T04:46:03Z,42.805,6.029,13.3063,4.60125,2470.553,2023-3-11T06:48:41Z
2023-03-11T04:49:07Z,42.805,6.029,13.3077,4.60102,2470.567,2023-3-11T06:51:44Z
2023-03-11T04:52:10Z,42.805,6.029,13.3069,4.60135,2470.567,2023-3-11T06:54:47Z
2023-03-11T04:55:13Z,42.805,6.029,13.3087,4.60122,2470.553,2023-3-11T06:57:50Z
2023-03-11T04:58:16Z,42.805,6.029,13.3061,4.60119,2470.553,2023-3-11T07:00:53Z
2023-03-11T05:01:19Z,42.805,6.029,13.3060,4.60129,2470.567,2023-3-11T07:03:56Z
2023-03-11T05:04:22Z,42.805,6.029,13.3073,4.60125,2470.591,2023-3-11T07:06:59Z
2023-03-11T05:07:25Z,42.805,6.029,13.3055,4.60087,2470.591,2023-3-11T07:10:02Z
2023-03-11T05:10:28Z,42.805,6.029,13.3071,4.60111,2470.577,2023-3-11T07:13:05Z
2023-03-11T05:13:31Z,42.805,6.029,13.3059,4.60122,2470.553,2023-3-11T07:16:08Z
2023-03-11T05:16:34Z,42.805,6.029,13.3063,4.60112,2470.591,2023-3-11T07:19:11Z
2023-03-11T05:19:37Z,42.805,6.029,13.3067,4.60092,2470.577,2023-3-11T07:22:14Z
2023-03-11T05:22:40Z,42.805,6.029,13.3033,4.60091,2470.53,2023-3-11T07:25:18Z
2023-03-11T05:25:43Z,42.805,6.029,13.3049,4.60113,2470.614,2023-3-11T07:28:21Z
2023-03-11T05:28:47Z,42.805,6.029,13.3058,4.60142,2470.6,2023-3-11T07:31:24Z
2023-03-11T05:31:50Z,42.805,6.029,13.3046,4.60112,2470.614,2023-3-11T07:34:27Z
2023-03-11T05:34:53Z,42.805,6.029,13.3054,4.60117,2470.591,2023-3-11T07:37:30Z
2023-03-11T05:37:56Z,42.805,6.029,13.3057,4.60088,2470.591,2023-3-11T07:40:33Z
2023-03-11T05:40:59Z,42.805,6.029,13.3043,4.60098,2470.6,2023-3-11T07:43:36Z
2023-03-11T05:44:02Z,42.805,6.029,13.3042,4.60101,2470.577,2023-3-11T07:46:39Z
2023-03-11T05:47:05Z,42.805,6.029,13.3048,4.60132,2470.614,2023-3-11T07:49:42Z
2023-03-11T05:50:08Z,42.805,6.029,13.3078,4.60116,2470.591,2023-3-11T07:52:45Z
2023-03-11T05:53:11Z,42.805,6.029,13.3059,4.60120,2470.6,2023-3-11T07:55:48Z
2023-03-11T05:56:14Z,42.805,6.029,13.3067,4.60110,2470.614,2023-3-11T07:58:51Z
2023-03-11T05:59:17Z,42.805,6.029,13.3046,4.60127,2470.624,2023-3-11T08:01:55Z
2023-03-11T06:02:20Z,42.805,6.029,13.3057,4.60117,2470.624,2023-3-11T08:04:58Z
2023-03-11T06:05:23Z,42.805,6.029,13.3054,4.60111,2470.614,2023-3-11T08:08:01Z
2023-03-11T06:08:26Z,42.805,6.029,13.3051,4.60084,2470.637,2023-3-11T08:11:04Z
2023-03-11T06:11:30Z,42.805,6.029,13.3039,4.60098,2470.624,2023-3-11T08:14:07Z
2023-03-11T06:14:33Z,42.805,6.029,13.3046,4.60115,2470.624,2023-3-11T08:17:10Z
2023-03-11T06:17:36Z,42.805,6.029,13.3039,4.60105,2470.637,2023-3-11T08:20:13Z
2023-03-11T06:20:39Z,42.805,6.029,13.3049,4.60089,2470.6,2023-3-11T08:23:16Z
2023-03-11T06:23:42Z,42.805,6.029,13.3043,4.60111,2470.637,2023-3-11T08:26:19Z
2023-03-11T06:26:45Z,42.805,6.029,13.3059,4.60122,2470.637,2023-3-11T08:29:22Z
2023-03-11T06:29:48Z,42.805,6.029,13.3053,4.60127,2470.624,2023-3-11T08:32:25Z
2023-03-11T06:32:51Z,42.805,6.029,13.3029,4.60114,2470.624,2023-3-11T08:35:28Z
2023-03-11T06:35:54Z,42.805,6.029,13.3033,4.60099,2470.67,2023-3-11T08:38:31Z
2023-03-11T06:38:57Z,42.805,6.029,13.3041,4.60104,2470.646,2023-3-11T08:41:35Z
2023-03-11T06:42:00Z,42.805,6.029,13.3029,4.60109,2470.637,2023-3-11T08:44:38Z
2023-03-11T06:45:03Z,42.805,6.029,13.3049,4.60096,2470.661,2023-3-11T08:47:41Z
2023-03-11T06:48:07Z,42.805,6.029,13.3046,4.60104,2470.661,2023-3-11T08:50:44Z
2023-03-11T06:51:10Z,42.805,6.029,13.3036,4.60112,2470.67,2023-3-11T08:53:47Z
2023-03-11T06:54:13Z,42.805,6.029,13.3054,4.60097,2470.661,2023-3-11T08:56:50Z
2023-03-11T06:57:16Z,42.805,6.029,13.3043,4.60083,2470.637,2023-3-11T08:59:53Z
2023-03-11T07:00:19Z,42.805,6.029,13.3033,4.60099,2470.684,2023-3-11T09:02:56Z
2023-03-11T07:03:22Z,42.805,6.029,13.3036,4.60106,2470.646,2023-3-11T09:05:59Z
2023-03-11T07:06:25Z,42.805,6.029,13.3043,4.60104,2470.637,2023-3-11T09:09:02Z
2023-03-11T07:09:28Z,42.805,6.029,13.3057,4.60097,2470.684,2023-3-11T09:12:05Z
2023-03-11T07:12:31Z,42.805,6.029,13.3034,4.60097,2470.67,2023-3-11T09:15:08Z
2023-03-11T07:15:34Z,42.805,6.029,13.3044,4.60089,2470.684,2023-3-11T09:18:12Z
2023-03-11T07:18:37Z,42.805,6.029,13.3041,4.60089,2470.693,2023-3-11T09:21:15Z
2023-03-11T07:21:40Z,42.805,6.029,13.3041,4.60102,2470.684,2023-3-11T09:24:18Z
2023-03-11T07:24:43Z,42.805,6.029,13.3052,4.60092,2470.646,2023-3-11T09:27:21Z
2023-03-11T07:27:47Z,42.805,6.029,13.3041,4.60089,2470.661,2023-3-11T09:30:24Z
2023-03-11T07:30:50Z,42.805,6.029,13.3044,4.60089,2470.684,2023-3-11T09:33:27Z
2023-03-11T07:33:53Z,42.805,6.029,13.3039,4.60102,2470.693,2023-3-11T09:36:30Z
2023-03-11T07:36:56Z,42.805,6.029,13.3048,4.60092,2470.717,2023-3-11T09:39:33Z
2023-03-11T07:39:59Z,42.805,6.029,13.3040,4.60093,2470.707,2023-3-11T09:42:36Z
2023-03-11T07:43:02Z,42.805,6.029,13.3040,4.60094,2470.693,2023-3-11T09:45:39Z
2023-03-11T07:46:05Z,42.805,6.029,13.3052,4.60110,2470.693,2023-3-11T09:48:42Z
2023-03-11T07:49:08Z,42.805,6.029,13.3053,4.60102,2470.717,2023-3-11T09:51:45Z
2023-03-11T07:52:11Z,42.805,6.029,13.3055,4.60089,2470.693,2023-3-11T09:54:48Z
2023-03-11T07:55:14Z,42.805,6.029,13.3051,4.60093,2470.717,2023-3-11T09:57:52Z
2023-03-11T07:58:17Z,42.805,6.029,13.3041,4.60104,2470.707,2023-3-11T10:00:55Z
2023-03-11T08:01:20Z,42.805,6.029,13.3046,4.60087,2470.74,2023-3-11T10:03:58Z
2023-03-11T08:04:24Z,42.805,6.029,13.3035,4.60097,2470.693,2023-3-11T10:07:01Z
2023-03-11T08:07:27Z,42.805,6.029,13.3040,4.60099,2470.717,2023-3-11T10:10:04Z
2023-03-11T08:10:30Z,42.805,6.029,13.3053,4.60092,2470.717,2023-3-11T10:13:07Z
2023-03-11T08:13:33Z,42.805,6.029,13.3048,4.60091,2470.717,2023-3-11T10:16:10Z
2023-03-11T08:16:36Z,42.805,6.029,13.3043,4.60090,2470.754,2023-3-11T10:19:13Z
2023-03-11T08:19:39Z,42.805,6.029,13.3046,4.60092,2470.693,2023-3-11T10:22:16Z
2023-03-11T08:22:42Z,42.805,6.029,13.3045,4.60099,2470.74,2023-3-11T10:25:19Z
2023-03-11T08:25:45Z,42.805,6.029,13.3046,4.60092,2470.717,2023-3-11T10:28:22Z
2023-03-11T08:28:48Z,42.805,6.029,13.3048,4.60089,2470.754,2023-3-11T10:31:25Z
2023-03-11T08:31:51Z,42.805,6.029,13.3054,4.60094,2470.693,2023-3-11T10:34:29Z
2023-03-11T08:34:54Z,42.805,6.029,13.3046,4.60093,2470.74,2023-3-11T10:37:32Z
2023-03-11T08:37:57Z,42.805,6.029,13.3038,4.60098,2470.763,2023-3-11T10:40:35Z
2023-03-11T08:41:01Z,42.805,6.029,13.3042,4.60103,2470.73,2023-3-11T10:43:38Z
2023-03-11T08:44:04Z,42.805,6.029,13.3050,4.60096,2470.754,2023-3-11T10:46:41Z
2023-03-11T08:47:07Z,42.805,6.029,13.3044,4.60096,2470.73,2023-3-11T10:49:44Z
2023-03-11T08:50:10Z,42.805,6.029,13.3046,4.60101,2470.74,2023-3-11T10:52:47Z
2023-03-11T08:53:13Z,42.805,6.029,13.3049,4.60089,2470.763,2023-3-11T10:55:50Z
2023-03-11T08:56:16Z,42.805,6.029,13.3037,4.60110,2470.777,2023-3-11T10:58:53Z
2023-03-11T08:59:19Z,42.805,6.029,13.3043,4.60104,2470.717,2023-3-11T11:01:56Z
2023-03-11T09:02:22Z,42.805,6.029,13.3037,4.60093,2470.717,2023-3-11T11:04:59Z
2023-03-11T09:05:25Z,42.805,6.029,13.3042,4.60095,2470.74,2023-3-11T11:08:03Z
2023-03-11T09:08:28Z,42.805,6.029,13.3045,4.60088,2470.74,2023-3-11T11:11:06Z
2023-03-11T09:11:31Z,42.805,6.029,13.3041,4.60094,2470.754,2023-3-11T11:14:09Z
2023-03-11T09:14:34Z,42.805,6.029,13.3031,4.60090,2470.777,2023-3-11T11:17:12Z
2023-03-11T09:17:38Z,42.805,6.029,13.3048,4.60096,2470.777,2023-3-11T11:20:15Z
2023-03-11T09:20:41Z,42.805,6.029,13.3050,4.60093,2470.73,2023-3-11T11:23:18Z
2023-03-11T09:23:44Z,42.805,6.029,13.3038,4.60104,2470.74,2023-3-11T11:26:21Z
2023-03-11T09:26:47Z,42.805,6.029,13.3050,4.60103,2470.763,2023-3-11T11:29:24Z
2023-03-11T09:29:50Z,42.805,6.029,13.3045,4.60094,2470.74,2023-3-11T11:32:27Z
2023-03-11T09:32:53Z,42.805,6.029,13.3053,4.60103,2470.717,2023-3-11T11:35:30Z
2023-03-11T09:35:56Z,42.805,6.029,13.3054,4.60099,2470.74,2023-3-11T11:38:33Z
2023-03-11T09:38:59Z,42.805,6.029,13.3039,4.60094,2470.754,2023-3-11T11:41:37Z
2023-03-11T09:42:02Z,42.805,6.029,13.3041,4.60104,2470.74,2023-3-11T11:44:40Z
2023-03-11T09:45:05Z,42.805,6.029,13.3052,4.60102,2470.693,2023-3-11T11:47:43Z
2023-03-11T09:48:08Z,42.805,6.029,13.3046,4.60109,2470.74,2023-3-11T11:50:46Z
2023-03-11T09:51:12Z,42.805,6.029,13.3062,4.60106,2470.74,2023-3-11T11:53:49Z
2023-03-11T09:54:15Z,42.805,6.029,13.3050,4.60097,2470.754,2023-3-11T11:56:52Z
2023-03-11T09:57:18Z,42.805,6.029,13.3073,4.60098,2470.74,2023-3-11T11:59:55Z
2023-03-11T10:00:21Z,42.805,6.029,13.3051,4.60102,2470.74,2023-3-11T12:02:58Z
2023-03-11T10:03:24Z,42.805,6.029,13.3055,4.60104,2470.73,2023-3-11T12:06:01Z
2023-03-11T10:06:27Z,42.805,6.029,13.3057,4.60099,2470.74,2023-3-11T12:09:04Z
2023-03-11T10:09:30Z,42.805,6.029,13.3056,4.60108,2470.754,2023-3-11T12:12:07Z
2023-03-11T10:12:33Z,42.805,6.029,13.3057,4.60104,2470.717,2023-3-11T12:15:10Z
2023-03-11T10:15:36Z,42.805,6.029,13.3048,4.60104,2470.73,2023-3-11T12:18:14Z
2023-03-11T10:18:39Z,42.805,6.029,13.3057,4.60104,2470.74,2023-3-11T12:21:17Z
2023-03-11T10:21:42Z,42.805,6.029,13.3051,4.60099,2470.74,2023-3-11T12:24:20Z
2023-03-11T10:24:45Z,42.805,6.029,13.3058,4.60110,2470.717,2023-3-11T12:27:23Z
2023-03-11T10:27:49Z,42.805,6.029,13.3057,4.60111,2470.73,2023-3-11T12:30:26Z
2023-03-11T10:30:52Z,42.805,6.029,13.3058,4.60111,2470.74,2023-3-11T12:33:29Z
2023-03-11T10:33:55Z,42.805,6.029,13.3048,4.60108,2470.74,2023-3-11T12:36:32Z
2023-03-11T10:36:58Z,42.805,6.029,13.3053,4.60111,2470.73,2023-3-11T12:39:35Z
2023-03-11T10:40:01Z,42.805,6.029,13.3059,4.60105,2470.73,2023-3-11T12:42:38Z
2023-03-11T10:43:04Z,42.805,6.029,13.3053,4.60100,2470.74,2023-3-11T12:45:41Z
2023-03-11T10:46:07Z,42.805,6.029,13.3056,4.60095,2470.73,2023-3-11T12:48:44Z
2023-03-11T10:49:10Z,42.805,6.029,13.3046,4.60111,2470.693,2023-3-11T12:51:47Z
2023-03-11T10:52:13Z,42.805,6.029,13.3051,4.60095,2470.707,2023-3-11T12:54:51Z
2023-03-11T10:55:16Z,42.805,6.029,13.3052,4.60094,2470.73,2023-3-11T12:57:54Z
2023-03-11T10:58:19Z,42.805,6.029,13.3044,4.60099,2470.754,2023-3-11T13:00:57Z
2023-03-11T11:01:22Z,42.805,6.029,13.3044,4.60097,2470.717,2023-3-11T13:04:00Z
2023-03-11T11:04:26Z,42.805,6.029,13.3058,4.60103,2470.707,2023-3-11T13:07:03Z
2023-03-11T11:07:29Z,42.805,6.029,13.3050,4.60092,2470.717,2023-3-11T13:10:06Z
2023-03-11T11:10:32Z,42.805,6.029,13.3056,4.60104,2470.693,2023-3-11T13:13:09Z
2023-03-11T11:13:35Z,42.805,6.029,13.3061,4.60109,2470.717,2023-3-11T13:16:12Z
2023-03-11T11:16:38Z,42.805,6.029,13.3059,4.60107,2470.67,2023-3-11T13:19:15Z
2023-03-11T11:19:41Z,42.805,6.029,13.3061,4.60098,2470.707,2023-3-11T13:22:18Z
2023-03-11T11:22:44Z,42.805,6.029,13.3056,4.60099,2470.67,2023-3-11T13:25:21Z
2023-03-11T11:25:47Z,42.805,6.029,13.3051,4.60099,2470.717,2023-3-11T13:28:24Z
2023-03-11T11:28:50Z,42.805,6.029,13.3061,4.60106,2470.73,2023-3-11T13:31:28Z
2023-03-11T11:31:53Z,42.805,6.029,13.3055,4.60096,2470.693,2023-3-11T13:34:31Z
2023-03-11T11:34:56Z,42.805,6.029,13.3058,4.60101,2470.67,2023-3-11T13:37:34Z
2023-03-11T11:37:59Z,42.805,6.029,13.3055,4.60112,2470.684,2023-3-11T13:40:37Z
2023-03-11T11:41:03Z,42.805,6.029,13.3056,4.60097,2470.67,2023-3-11T13:43:40Z
2023-03-11T11:44:06Z,42.805,6.029,13.3061,4.60095,2470.67,2023-3-11T13:46:43Z
2023-03-11T11:47:09Z,42.805,6.029,13.3052,4.60113,2470.67,2023-3-11T13:49:46Z
2023-03-11T11:50:12Z,42.805,6.029,13.3052,4.60111,2470.684,2023-3-11T13:52:49Z
2023-03-11T11:53:15Z,42.805,6.029,13.3061,4.60106,2470.67,2023-3-11T13:55:52Z
2023-03-11T11:56:18Z,42.805,6.029,13.3059,4.60103,2470.67,2023-3-11T13:58:55Z
2023-03-11T11:59:21Z,42.805,6.029,13.3062,4.60110,2470.646,2023-3-11T14:01:58Z
2023-03-11T12:02:24Z,42.805,6.029,13.3058,4.60107,2470.693,2023-3-11T14:05:02Z
2023-03-11T12:05:27Z,42.805,6.029,13.3063,4.60103,2470.693,2023-3-11T14:08:05Z
2023-03-11T12:08:30Z,42.805,6.029,13.3055,4.60110,2470.646,2023-3-11T14:11:08Z
2023-03-11T12:11:33Z,42.805,6.029,13.3054,4.60097,2470.67,2023-3-11T14:14:11Z
2023-03-11T12:14:36Z,42.805,6.029,13.3065,4.60107,2470.684,2023-3-11T14:17:14Z
2023-03-11T12:17:40Z,42.805,6.029,13.3055,4.60102,2470.646,2023-3-11T14:20:17Z
2023-03-11T12:20:43Z,42.805,6.029,13.3060,4.60094,2470.646,2023-3-11T14:23:20Z
2023-03-11T12:23:46Z,42.805,6.029,13.3066,4.60094,2470.661,2023-3-11T14:26:23Z
2023-03-11T12:26:49Z,42.805,6.029,13.3071,4.60115,2470.646,2023-3-11T14:29:26Z
2023-03-11T12:29:52Z,42.805,6.029,13.3061,4.60109,2470.67,2023-3-11T14:32:29Z
2023-03-11T12:32:55Z,42.805,6.029,13.3065,4.60117,2470.646,2023-3-11T14:35:32Z
2023-03-11T12:35:58Z,42.805,6.029,13.3044,4.60119,2470.661,2023-3-11T14:38:35Z
2023-03-11T12:39:01Z,42.805,6.029,13.3056,4.60112,2470.661,2023-3-11T14:41:39Z
2023-03-11T12:42:04Z,42.805,6.029,13.3058,4.60110,2470.646,2023-3-11T14:44:42Z
2023-03-11T12:45:07Z,42.805,6.029,13.3058,4.60106,2470.646,2023-3-11T14:47:45Z
2023-03-11T12:48:10Z,42.805,6.029,13.3068,4.60099,2470.661,2023-3-11T14:50:48Z
2023-03-11T12:51:14Z,42.805,6.029,13.3060,4.60110,2470.646,2023-3-11T14:53:51Z
2023-03-11T12:54:17Z,42.805,6.029,13.3053,4.60098,2470.646,2023-3-11T14:56:54Z
2023-03-11T12:57:20Z,42.805,6.029,13.3086,4.60114,2470.661,2023-3-11T14:59:57Z
2023-03-11T13:00:23Z,42.805,6.029,13.3064,4.60109,2470.624,2023-3-11T15:03:00Z
2023-03-11T13:03:26Z,42.805,6.029,13.3092,4.60113,2470.637,2023-3-11T15:06:03Z
2023-03-11T13:06:29Z,42.805,6.029,13.3051,4.60097,2470.633,2023-3-11T15:09:06Z
2023-03-11T13:09:32Z,42.805,6.029,13.3062,4.60111,2470.646,2023-3-11T15:12:09Z
2023-03-11T13:12:35Z,42.805,6.029,13.3051,4.60112,2470.637,2023-3-11T15:15:12Z
2023-03-11T13:15:38Z,42.805,6.029,13.3063,4.60104,2470.624,2023-3-11T15:18:16Z
2023-03-11T13:18:41Z,42.805,6.029,13.3061,4.60106,2470.624,2023-3-11T15:21:19Z
2023-03-11T13:21:44Z,42.805,6.029,13.3059,4.60114,2470.624,2023-3-11T15:24:22Z
2023-03-11T13:24:47Z,42.805,6.029,13.3061,4.60109,2470.591,2023-3-11T15:27:25Z
2023-03-11T13:27:50Z,42.805,6.029,13.3052,4.60102,2470.637,2023-3-11T15:30:28Z
2023-03-11T13:30:54Z,42.805,6.029,13.3049,4.60132,2470.6,2023-3-11T15:33:31Z
2023-03-11T13:33:57Z,42.805,6.029,13.3069,4.60102,2470.577,2023-3-11T15:36:34Z
2023-03-11T13:37:00Z,42.805,6.029,13.3067,4.60097,2470.624,2023-3-11T15:39:37Z
2023-03-11T13:40:03Z,42.805,6.029,13.3057,4.60099,2470.6,2023-3-11T15:42:40Z
2023-03-11T13:43:06Z,42.805,6.029,13.3058,4.60102,2470.614,2023-3-11T15:45:43Z
2023-03-11T13:46:09Z,42.805,6.029,13.3083,4.60099,2470.591,2023-3-11T15:48:46Z
2023-03-11T13:49:12Z,42.805,6.029,13.3079,4.60096,2470.6,2023-3-11T15:51:50Z
2023-03-11T13:52:15Z,42.805,6.029,13.3082,4.60102,2470.577,2023-3-11T15:54:53Z
2023-03-11T13:55:18Z,42.805,6.029,13.3071,4.60104,2470.563,2023-3-11T15:57:56Z
2023-03-11T13:58:21Z,42.805,6.029,13.3066,4.60093,2470.6,2023-3-11T16:00:59Z
2023-03-11T14:01:24Z,42.805,6.029,13.3058,4.60093,2470.6,2023-3-11T16:04:02Z
2023-03-11T14:04:28Z,42.805,6.029,13.3056,4.60119,2470.591,2023-3-11T16:07:05Z
2023-03-11T14:07:31Z,42.805,6.029,13.3059,4.60114,2470.577,2023-3-11T16:10:08Z
2023-03-11T14:10:34Z,42.805,6.029,13.3067,4.60116,2470.591,2023-3-11T16:13:11Z
2023-03-11T14:13:37Z,42.805,6.029,13.3078,4.60126,2470.614,2023-3-11T16:16:14Z
2023-03-11T14:16:40Z,42.805,6.029,13.3053,4.60100,2470.591,2023-3-11T16:19:17Z
2023-03-11T14:19:43Z,42.805,6.029,13.3056,4.60119,2470.577,2023-3-11T16:22:20Z
2023-03-11T14:22:46Z,42.805,6.029,13.3061,4.60115,2470.577,2023-3-11T16:25:23Z
2023-03-11T14:25:49Z,42.805,6.029,13.3065,4.60115,2470.577,2023-3-11T16:28:27Z
2023-03-11T14:28:52Z,42.805,6.029,13.3073,4.60093,2470.6,2023-3-11T16:31:30Z
2023-03-11T14:31:55Z,42.805,6.029,13.3066,4.60106,2470.614,2023-3-11T16:34:33Z
2023-03-11T14:34:58Z,42.805,6.029,13.3074,4.60106,2470.591,2023-3-11T16:37:36Z
2023-03-11T14:38:01Z,42.805,6.029,13.3054,4.60118,2470.553,2023-3-11T16:40:39Z
2023-03-11T14:41:05Z,42.805,6.029,13.3054,4.60092,2470.567,2023-3-11T16:43:42Z
2023-03-11T14:44:08Z,42.805,6.029,13.3057,4.60112,2470.577,2023-3-11T16:46:45Z
2023-03-11T14:47:11Z,42.805,6.029,13.3058,4.60117,2470.553,2023-3-11T16:49:48Z
2023-03-11T14:50:14Z,42.805,6.029,13.3049,4.60092,2470.591,2023-3-11T16:52:51Z
2023-03-11T14:53:17Z,42.805,6.029,13.3061,4.60110,2470.591,2023-3-11T16:55:54Z
2023-03-11T14:56:20Z,42.805,6.029,13.3078,4.60110,2470.614,2023-3-11T16:58:57Z
2023-03-11T14:59:23Z,42.805,6.029,13.3067,4.60116,2470.591,2023-3-11T17:02:01Z
2023-03-11T15:02:26Z,42.805,6.029,13.3069,4.60119,2470.553,2023-3-11T17:05:04Z
2023-03-11T15:05:29Z,42.805,6.029,13.3060,4.60107,2470.553,2023-3-11T17:08:07Z
2023-03-11T15:08:32Z,42.805,6.029,13.3083,4.60114,2470.553,2023-3-11T17:11:10Z
2023-03-11T15:11:35Z,42.805,6.029,13.3082,4.60103,2470.53,2023-3-11T17:14:13Z
2023-03-11T15:14:38Z,42.805,6.029,13.3085,4.60101,2470.591,2023-3-11T17:17:16Z